GFSSW_850_temp_132.txt.gz
Temp
19 20 20 21 21 22 22 23 23 24 24 24 24 24 25 25 25 26 27 27 27 27 27 27 27 27 25 25 25 25 21 22 27 30 31 29 28 24 26 24 25 25 23 22 21
20 20 20 21 21 22 23 23 23 23 24 24 24 24 25 25 25 27 27 28 27 27 27 27 27 27 26 27 27 25 22 27 31 31 31 32 30 26 25 25 25 24 23 22 21
20 20 20 21 21 22 22 23 23 24 24 24 24 24 24 25 26 27 28 28 28 28 28 27 27 27 27 29 29 28 27 30 31 33 33 32 32 29 25 25 25 23 23 21 22
20 20 20 21 21 22 22 23 23 24 24 24 24 24 24 25 25 27 27 27 27 28 28 28 28 28 27 26 30 29 31 32 32 32 33 32 33 29 28 26 26 25 24 23 22
20 20 21 21 21 22 22 23 23 23 24 24 24 24 24 25 27 27 27 27 27 27 27 28 27 28 26 27 29 29 29 32 32 33 33 33 32 32 28 27 25 24 23 23 23
20 20 21 21 22 22 22 23 23 23 23 24 24 24 24 24 27 27 27 27 27 27 28 28 29 29 28 28 27 29 29 30 32 32 33 32 32 31 27 26 25 24 23 23 23
20 21 21 22 22 22 22 23 23 23 23 24 24 25 24 27 27 27 27 27 28 28 28 28 28 29 29 26 30 29 28 27 30 31 32 32 30 29 26 26 25 24 24 23 24
20 21 21 22 22 22 23 23 23 23 23 24 24 24 26 27 26 27 27 27 27 27 28 28 28 29 29 29 28 27 26 26 28 30 32 30 28 30 26 26 25 25 24 24 24
20 21 22 22 23 23 23 23 23 23 23 23 23 23 26 26 26 27 27 28 28 28 28 28 29 28 28 25 22 23 24 26 29 32 31 28 28 31 30 26 26 25 25 24 24
20 21 22 22 23 23 23 24 23 23 24 24 23 23 26 27 27 28 28 28 27 28 28 28 28 24 22 22 23 26 27 28 29 31 28 27 28 29 30 29 26 26 25 25 24
20 21 22 22 23 24 24 23 24 23 24 26 25 26 28 28 27 27 28 28 28 29 26 28 24 23 24 23 25 27 29 27 29 30 28 27 28 27 28 28 26 26 27 25 25
20 21 22 23 23 24 24 24 25 24 24 26 27 26 28 28 28 28 28 28 28 25 26 24 24 26 26 28 28 30 29 27 29 31 29 26 28 27 26 26 27 27 26 26 25
20 21 22 23 23 23 24 24 25 25 23 26 28 28 29 29 29 28 28 29 27 26 26 24 27 29 29 30 29 26 28 29 30 29 28 27 26 27 26 25 26 26 27 26 26
19 20 21 23 23 23 24 24 24 25 18 23 26 29 29 30 29 30 29 29 27 26 26 25 28 31 31 30 27 27 29 29 28 26 26 27 24 26 24 24 24 25 26 27 26
19 20 21 21 22 23 23 24 24 25 21 28 27 30 30 30 30 29 30 29 27 27 28 27 30 30 29 30 29 29 30 29 29 26 25 26 23 23 23 22 23 24 25 26 26
19 19 21 21 22 23 23 24 24 20 22 28 29 28 27 29 29 29 30 30 30 28 27 27 31 31 30 31 31 31 28 24 21 21 22 24 24 23 22 24 23 24 25 25 25
19 19 20 21 23 22 23 24 19 20 26 28 27 26 25 26 28 28 27 27 25 26 25 26 28 30 31 29 27 25 21 20 22 20 22 24 24 23 24 25 25 24 25 26 25
19 20 21 22 23 22 22 19 21 24 26 29 27 25 25 26 26 27 26 25 25 25 23 24 25 28 29 28 27 28 22 20 24 22 22 23 24 24 24 26 26 27 26 25 25
19 20 22 24 22 22 21 17 19 23 28 28 27 26 25 27 27 27 25 25 26 24 25 24 27 29 30 30 27 28 24 23 21 20 21 22 25 25 25 24 24 25 25 24 25
18 20 23 24 22 21 17 16 20 25 27 26 27 26 24 26 26 26 25 27 28 27 26 26 26 27 30 29 29 26 25 23 18 23 24 22 24 21 25 23 23 23 24 25 25
18 18 24 24 21 20 15 16 22 27 27 26 27 27 26 27 28 24 26 29 28 26 27 24 23 26 27 27 26 25 24 21 19 18 19 20 21 21 24 21 21 22 25 25 24
16 12 21 22 19 17 16 20 24 25 27 25 28 27 27 27 27 26 27 28 28 27 26 25 20 23 26 26 26 23 23 20 19 22 18 18 20 22 23 23 24 23 24 24 25
13 15 22 22 17 15 18 21 23 23 24 25 27 27 28 27 27 26 27 26 28 24 24 24 20 20 22 22 22 25 25 23 18 17 21 19 20 23 22 21 23 23 23 24 24
11 9 19 22 22 18 19 20 21 25 25 27 26 26 25 26 26 27 27 26 26 26 26 25 18 19 20 22 22 24 24 25 20 18 19 19 22 23 23 19 21 23 23 23 22
10 10 13 12 15 14 18 20 21 22 25 26 25 25 25 25 25 26 25 25 25 26 24 20 21 23 22 23 24 24 24 24 24 23 22 22 21 22 19 18 21 22 22 22 22
10 11 12 12 15 16 17 21 21 23 23 25 24 25 22 22 22 23 23 22 24 24 23 19 19 22 23 23 22 23 23 23 23 24 23 21 21 20 21 22 21 22 22 22 21
9 10 11 12 12 15 15 17 19 22 25 25 24 21 20 22 23 24 24 22 22 21 19 19 17 16 20 20 21 20 23 23 22 22 21 22 20 20 20 20 20 21 21 20 20

GFSSW_850_temp_138.txt.gz
Temp
19 19 20 20 21 21 22 22 23 23 23 24 24 24 24 24 25 25 26 27 27 27 27 27 26 25 26 25 24 24 20 21 23 24 25 24 24 25 25 23 23 22 21 21 19
19 19 20 20 21 21 21 22 22 23 23 24 24 24 24 24 25 26 26 27 27 27 27 27 26 26 25 25 24 21 19 23 23 25 26 24 25 24 24 23 22 21 21 20 19
19 19 20 20 21 21 21 22 22 22 23 23 24 24 24 24 24 27 28 27 27 27 26 26 26 26 25 25 24 22 22 24 26 27 26 25 24 25 23 22 22 20 20 20 19
19 20 20 20 21 21 21 22 22 22 23 23 24 24 24 24 24 26 27 27 27 26 26 26 26 26 24 25 26 24 24 25 28 29 26 24 25 25 25 25 25 24 22 20 20
19 20 20 20 21 21 22 22 22 22 23 23 23 23 24 24 26 26 26 26 26 26 26 26 26 26 25 25 25 23 26 27 28 27 29 27 25 24 24 25 24 22 21 20 20
19 20 20 21 21 21 22 22 22 22 23 23 23 23 24 23 26 26 26 26 26 26 27 26 27 27 26 25 25 26 26 26 28 29 28 26 25 26 24 24 22 22 21 20 20
19 20 20 21 21 22 22 22 22 22 23 23 23 23 23 26 26 26 26 26 26 27 27 27 27 27 27 25 27 26 25 25 28 30 28 28 26 26 24 23 21 20 21 20 21
19 20 20 21 22 22 22 22 22 22 23 23 24 24 25 26 26 26 26 26 26 26 27 27 26 27 26 26 26 24 23 25 28 28 28 28 26 23 23 23 20 20 20 20 21
19 20 20 21 22 22 22 22 22 22 22 23 23 23 25 26 26 26 26 26 27 27 27 27 27 26 26 23 21 20 24 25 26 28 27 27 26 22 22 22 21 21 20 20 20
19 20 20 21 22 23 23 23 22 22 22 23 23 23 24 26 26 26 26 26 26 26 26 26 26 21 19 20 23 25 25 25 26 28 27 26 26 21 22 22 22 22 21 20 21
19 20 20 21 22 23 23 22 22 22 22 25 25 25 25 26 26 26 26 26 26 26 24 25 22 22 23 22 24 25 25 25 28 27 24 25 24 21 22 22 22 22 22 22 22
18 19 20 21 22 22 22 22 21 21 20 24 25 25 26 26 26 26 26 26 25 23 24 22 21 23 24 23 24 23 25 26 26 26 24 23 23 22 22 22 22 22 22 23 22
18 19 20 21 22 22 22 22 22 22 20 23 25 26 27 27 27 27 27 26 25 24 23 22 26 26 26 25 26 26 25 27 27 25 23 23 23 23 23 23 23 23 23 23 24
17 18 19 21 21 22 22 22 23 23 17 21 23 26 27 28 26 27 27 27 25 24 22 23 25 26 28 28 24 27 27 27 26 24 23 23 21 22 22 22 22 23 23 24 23
17 18 19 20 21 22 22 22 23 23 20 24 24 27 27 27 27 27 28 27 25 25 24 26 27 28 28 28 26 27 27 26 26 22 23 23 21 21 21 22 20 21 24 24 24
17 17 19 19 21 22 22 23 23 18 20 25 25 24 24 26 27 26 27 27 27 25 25 25 27 27 27 27 27 24 24 20 18 18 21 23 21 20 20 23 20 21 23 24 24
17 17 18 19 21 21 22 23 18 18 23 25 24 23 23 24 25 25 24 24 23 23 25 26 27 27 28 27 26 23 20 19 22 19 21 20 20 21 22 22 22 21 22 24 24
17 18 19 20 20 21 21 18 19 21 21 24 23 22 23 23 25 25 23 22 23 23 20 23 25 27 28 27 25 23 21 19 24 20 20 20 22 22 21 23 23 23 24 24 25
17 18 19 21 21 21 20 16 18 19 23 25 24 23 23 24 24 25 22 22 22 22 23 22 25 26 27 26 26 24 22 20 17 16 19 18 21 23 20 20 22 22 23 24 25
16 17 19 20 20 20 16 15 18 19 23 24 23 23 22 23 24 23 22 24 25 22 24 23 25 25 27 26 24 25 20 22 17 22 22 19 19 20 21 20 20 20 21 23 24
15 17 18 19 19 19 15 15 18 21 22 24 24 23 22 23 22 21 23 24 24 22 24 21 22 25 25 24 23 23 21 16 16 16 18 19 20 19 20 19 19 20 23 23 23
14 11 16 17 15 10 12 15 20 22 23 23 23 23 22 22 21 22 23 24 26 23 23 21 18 21 24 22 21 23 21 18 18 20 15 16 19 21 18 20 21 21 22 23 23
10 13 15 14 12 11 14 18 20 21 22 23 23 23 24 23 25 22 22 25 25 23 22 20 18 19 21 21 23 23 21 16 14 14 16 18 19 20 20 20 22 22 23 23 23
9 8 14 16 15 14 16 18 19 22 21 22 22 23 24 24 23 23 24 23 24 22 24 22 15 19 21 21 20 22 22 19 18 17 16 16 19 22 21 19 19 21 22 23 22
8 7 8 10 11 12 14 17 18 20 20 21 21 21 22 22 23 23 23 24 23 22 19 19 19 19 18 21 22 22 22 21 22 19 21 20 19 20 19 18 19 21 20 21 21
7 6 8 8 9 11 12 15 17 18 19 20 20 22 20 21 21 21 21 22 23 21 19 15 18 19 19 20 21 21 21 21 22 19 20 20 19 17 20 21 20 20 20 20 20
6 6 6 9 8 11 11 14 16 16 18 20 20 19 20 21 22 22 22 22 21 20 16 16 15 17 19 18 20 20 20 20 20 20 20 19 19 17 17 16 17 18 19 20 21

GFSSW_850_temp_144.txt.gz
Temp
19 20 20 21 21 21 21 22 22 23 23 24 24 24 25 25 25 26 26 26 27 27 26 26 26 26 27 29 28 28 33 32 31 32 32 30 31 28 27 26 25 24 25 21 19
19 20 20 21 21 21 21 22 22 23 23 24 24 24 24 25 25 26 27 27 27 27 26 26 28 28 30 30 30 33 33 32 33 32 32 31 31 29 29 27 25 23 21 20 19
19 20 20 20 21 21 21 22 22 22 23 23 24 24 24 24 25 28 28 27 27 27 26 27 27 28 31 31 31 32 33 33 33 32 31 32 31 30 30 30 27 23 21 20 20
19 20 20 20 21 21 22 22 22 22 22 23 23 23 24 24 29 26 27 27 27 27 26 27 28 30 32 32 31 33 32 32 33 32 31 32 31 30 30 29 27 24 22 21 21
19 19 20 20 21 21 22 22 22 22 22 23 23 23 23 24 27 26 26 27 27 27 27 28 29 30 32 32 32 33 33 32 33 32 31 31 31 30 28 27 25 23 22 22 22
19 19 20 20 21 21 22 22 22 22 22 23 23 23 23 27 26 26 26 26 26 26 27 27 29 29 31 31 32 31 32 33 32 32 31 32 30 31 27 26 25 23 23 23 22
19 19 20 21 21 22 22 22 22 22 22 22 23 23 21 26 25 25 26 25 25 26 27 27 27 29 30 32 30 31 32 34 34 33 32 32 31 31 27 26 25 24 24 23 22
19 19 20 20 21 22 23 22 22 22 22 22 22 22 26 25 25 26 25 25 25 25 26 26 27 29 30 29 31 32 33 34 34 33 32 33 32 29 28 27 26 25 24 23 23
18 19 19 20 21 22 23 22 22 22 22 22 22 21 28 25 25 24 25 25 25 25 25 26 27 30 30 32 33 33 34 34 33 34 33 34 32 29 28 28 27 26 25 24 23
18 19 19 20 21 22 22 22 22 21 22 22 22 22 24 26 25 24 24 25 26 26 27 27 29 32 32 33 33 33 33 34 34 34 34 34 32 30 28 29 28 27 25 25 24
18 18 19 20 21 21 21 21 20 20 20 27 27 27 26 25 25 25 25 26 27 28 30 29 31 32 33 33 32 32 33 34 34 33 34 34 33 31 29 29 29 28 26 26 25
17 18 19 20 21 21 21 21 21 21 25 25 24 24 25 26 27 26 26 28 28 30 31 30 31 33 32 32 31 32 33 33 33 33 33 33 33 32 30 30 30 29 28 27 26
16 18 19 20 21 20 21 20 22 22 25 27 25 26 26 26 28 27 27 29 30 31 30 32 33 31 31 31 32 33 34 33 33 32 34 33 32 31 31 30 30 29 28 28 28
16 17 18 20 20 20 20 21 22 22 27 29 27 27 26 28 29 28 28 29 30 31 31 32 32 31 31 32 33 33 33 33 33 33 33 33 32 32 33 31 30 29 29 28 28
15 16 17 18 19 20 20 21 22 21 27 30 28 27 28 29 30 28 28 28 31 31 30 32 31 31 32 33 33 33 33 33 33 33 33 32 33 34 33 32 33 32 30 29 28
15 15 17 17 19 20 21 21 21 26 26 28 28 28 29 29 30 28 28 28 30 31 31 32 31 33 34 33 33 32 32 32 32 33 31 33 32 33 33 33 34 33 31 30 29
15 15 16 17 18 19 20 21 25 26 29 29 29 30 30 30 30 29 29 29 30 29 29 31 32 33 32 32 32 32 33 31 30 31 31 31 31 33 33 32 32 33 32 30 29
15 15 16 17 18 19 19 24 24 28 29 29 30 30 30 31 31 30 30 30 31 32 32 31 30 32 33 33 32 32 33 32 29 31 31 30 30 32 31 30 29 30 32 31 29
14 16 17 18 19 19 20 24 25 27 29 29 29 29 30 31 31 30 30 31 31 31 31 31 32 33 33 33 33 32 31 33 31 31 31 32 31 32 31 31 30 30 31 31 30
13 14 15 18 18 18 22 23 27 29 28 29 29 30 29 30 29 30 30 31 31 32 32 32 31 33 31 32 31 32 33 31 32 29 29 30 30 31 31 31 30 30 30 30 29
12 14 16 16 16 18 23 25 27 27 27 28 29 30 30 30 30 30 31 32 32 31 32 32 31 31 30 31 32 31 31 32 33 31 30 30 31 32 31 31 31 30 30 29 29
9 18 15 16 19 21 23 26 26 27 26 28 28 29 30 31 30 31 31 31 31 32 31 32 32 31 31 30 31 33 33 32 31 29 30 30 31 33 32 31 30 30 29 29 28
10 14 13 13 21 23 24 25 26 27 28 28 28 29 30 30 29 31 31 32 31 32 31 32 31 30 29 30 30 31 32 32 32 31 30 30 31 31 30 30 29 29 29 28 27
8 17 16 13 19 21 23 23 24 25 27 28 29 29 28 28 30 30 31 29 29 31 28 30 32 31 31 31 32 30 30 31 32 31 31 30 31 31 30 30 29 27 27 27 25
9 16 13 19 20 21 23 24 24 25 25 27 27 28 28 28 29 29 31 29 28 25 29 31 30 31 32 32 32 32 31 31 31 31 30 31 30 30 29 28 26 25 26 25 25
10 12 13 15 15 19 18 22 24 26 26 26 26 28 28 28 29 29 30 29 29 27 29 31 29 30 30 30 31 31 31 31 31 31 30 30 29 30 27 27 26 25 24 24 24
6 6 8 15 18 19 21 21 23 25 26 26 27 28 28 28 29 29 29 29 31 29 28 29 29 28 29 29 30 29 30 30 30 30 30 29 29 28 28 26 25 25 24 23 22

GFSSW_850_temp_147.txt.gz
Temp
20 20 20 21 21 21 22 22 23 23 23 24 24 25 25 26 26 26 26 27 27 27 27 27 27 29 30 32 32 33 35 33 34 34 34 34 33 31 30 29 28 27 25 23 20
19 20 20 21 21 21 22 22 23 23 23 24 24 25 25 26 26 25 27 27 28 28 28 28 30 31 33 33 34 36 36 34 35 35 34 34 33 32 31 29 27 25 23 23 22
19 20 20 21 21 21 22 22 22 23 23 23 24 24 25 25 26 29 28 28 28 28 28 29 30 31 34 34 34 36 35 36 35 34 34 34 33 33 32 31 28 25 23 23 24
19 19 20 21 21 22 22 22 23 23 23 23 24 24 24 25 30 28 28 28 28 28 28 29 30 32 35 35 34 35 35 35 35 34 34 34 33 33 32 30 27 25 24 23 24
19 19 20 20 21 22 22 22 23 23 23 23 23 24 24 25 28 28 28 28 28 28 29 30 31 33 35 35 35 35 35 35 35 34 34 33 34 32 31 29 27 25 24 24 24
19 19 20 20 21 22 22 22 23 23 23 23 23 23 24 29 27 27 27 27 27 28 30 30 32 32 33 34 35 34 35 35 35 34 34 34 33 32 30 28 26 26 25 25 24
18 19 19 20 21 22 22 23 23 22 23 23 23 23 23 28 27 26 26 27 28 29 30 30 30 31 33 35 33 34 35 36 35 35 34 34 33 32 30 28 27 27 26 26 25
18 19 19 20 21 22 23 23 22 22 23 23 23 23 28 26 26 26 27 27 28 29 30 30 30 31 32 33 34 35 36 35 36 35 34 34 32 32 30 29 28 27 27 26 25
18 18 19 20 21 22 22 22 22 22 22 23 22 23 29 27 26 27 27 28 28 28 29 28 29 32 34 34 35 35 35 35 35 36 36 35 33 33 31 30 29 28 27 26 25
18 18 19 20 21 21 21 21 22 22 22 22 21 25 26 28 28 28 28 28 28 29 29 29 31 34 34 35 34 35 36 36 35 35 36 36 34 34 32 31 30 29 28 27 26
17 18 19 19 21 21 21 21 21 20 21 28 29 29 29 29 28 27 28 28 29 30 32 32 33 33 35 36 35 36 36 35 36 36 36 36 34 33 33 33 31 30 28 28 27
17 18 19 19 20 21 21 22 24 23 27 27 28 29 29 28 29 29 28 29 30 31 33 33 33 36 36 36 35 35 35 36 36 36 36 36 35 34 34 33 32 31 29 29 28
16 17 18 19 20 21 21 23 22 23 27 30 29 29 29 29 30 30 29 31 31 32 33 34 35 36 35 34 34 35 35 35 35 35 36 35 34 34 34 33 33 32 31 30 29
15 16 17 20 20 20 22 22 22 23 28 32 30 30 30 29 31 30 29 31 32 33 34 34 35 34 34 34 35 35 36 35 35 34 34 36 33 34 34 34 34 33 32 31 30
14 16 17 17 20 21 22 22 22 23 28 34 32 31 31 30 32 31 30 31 33 33 34 33 34 33 33 34 36 35 36 35 35 35 35 35 34 34 35 33 34 34 32 32 31
14 15 16 16 18 20 20 21 23 27 28 32 31 32 32 31 33 32 30 31 32 34 34 35 35 35 35 36 36 36 34 34 35 35 34 35 34 34 35 35 35 35 33 32 31
14 14 15 16 19 19 19 22 26 27 33 32 32 32 33 32 33 33 31 31 32 31 32 33 34 35 35 35 35 34 34 33 32 33 33 36 34 35 36 35 35 36 34 33 32
14 15 16 17 17 18 20 25 25 30 32 34 33 33 32 33 33 32 32 31 33 33 34 32 32 34 35 35 34 34 35 34 31 33 34 34 32 34 35 34 33 33 34 34 32
14 14 15 16 18 17 21 24 27 30 33 33 33 32 32 34 34 32 32 32 33 34 33 33 33 35 35 36 36 34 33 36 34 35 34 34 34 35 35 35 34 33 34 34 33
13 13 17 18 16 18 22 23 28 31 32 33 32 33 32 33 33 33 32 34 34 34 35 35 33 36 35 35 36 35 35 33 34 32 31 34 33 33 33 34 34 33 33 34 33
12 16 19 17 17 20 23 25 28 30 31 31 31 33 33 33 34 33 33 34 35 35 35 35 34 34 35 33 33 33 33 34 36 35 33 32 33 34 33 33 33 33 32 32 32
12 18 18 17 19 23 24 26 27 29 30 31 31 32 33 34 33 33 33 34 34 35 33 34 34 33 33 35 35 36 34 34 33 31 33 33 32 34 34 33 33 33 32 31 31
12 17 17 17 21 24 26 27 28 29 30 30 30 31 32 32 32 33 33 35 34 34 34 34 33 32 33 34 34 34 35 35 34 34 32 32 32 34 33 33 32 32 32 31 31
11 18 18 17 19 23 26 26 27 27 30 30 31 31 31 31 33 32 33 35 34 34 34 33 33 32 33 32 34 32 33 34 34 33 32 33 32 32 33 32 32 31 31 31 30
11 17 20 22 21 22 24 27 27 27 29 29 30 31 31 30 31 32 33 34 33 28 33 33 31 33 33 35 35 34 33 34 33 33 32 33 33 33 31 30 30 29 28 29 28
11 15 17 18 20 23 21 24 27 27 29 28 29 30 31 30 31 31 33 33 32 33 32 33 31 32 32 34 34 34 34 34 34 33 33 33 33 32 29 29 29 28 28 27 27
11 11 11 17 20 21 23 24 25 28 28 29 29 30 30 31 31 32 33 33 33 32 31 32 32 31 30 33 33 32 33 34 34 34 33 32 33 31 30 29 28 28 27 26 26